Time,TemperatureF,DewpointF,PressureIn,WindDirection,WindDirectionDegrees,WindSpeedMPH,WindSpeedGustMPH,Humidity,HourlyPrecipIn,Conditions,Clouds,dailyrainin,SoftwareType,DateUTC
2013-04-21 00:03:00,35.3,25.0,30.33,ESE,115,1.0,3.0,67,0.00,,,0.00,weatherlink.com 1.10,2013-04-21 05:03:00,
2013-04-21 00:18:00,35.1,26.0,30.34,SE,126,4.0,4.0,69,0.00,,,0.00,weatherlink.com 1.10,2013-04-21 05:18:00,
2013-04-21 00:33:00,35.3,27.0,30.34,SE,126,5.0,8.0,71,0.00,,,0.00,weatherlink.com 1.10,2013-04-21 05:33:00,
2013-04-21 00:48:00,35.7,27.0,30.35,SE,140,7.0,8.0,71,0.00,,,0.00,weatherlink.com 1.10,2013-04-21 05:48:00,
2013-04-21 01:03:00,35.6,27.0,30.35,SE,132,7.0,9.0,72,0.00,,,0.00,weatherlink.com 1.10,2013-04-21 06:03:00,
2013-04-21 01:18:00,35.3,27.0,30.35,SE,137,6.0,8.0,73,0.00,,,0.00,weatherlink.com 1.10,2013-04-21 06:18:00,
2013-04-21 01:33:00,35.1,28.0,30.36,SE,124,3.0,8.0,74,0.00,,,0.00,weatherlink.com 1.10,2013-04-21 06:33:00,
2013-04-21 01:48:00,34.1,28.0,30.35,ESE,107,3.0,7.0,77,0.00,,,0.00,weatherlink.com 1.10,2013-04-21 06:48:00,
2013-04-21 02:03:00,34.1,28.0,30.36,ESE,115,5.0,9.0,77,0.00,,,0.00,weatherlink.com 1.10,2013-04-21 07:03:00,
2013-04-21 02:18:00,34.2,28.0,30.36,ESE,115,1.0,8.0,78,0.00,,,0.00,weatherlink.com 1.10,2013-04-21 07:18:00,
2013-04-21 02:33:00,33.9,28.0,30.35,ESE,119,3.0,8.0,79,0.00,,,0.00,weatherlink.com 1.10,2013-04-21 07:33:00,
2013-04-21 02:48:00,33.8,28.0,30.35,ESE,109,4.0,8.0,79,0.00,,,0.00,weatherlink.com 1.10,2013-04-21 07:48:00,
2013-04-21 03:03:00,33.6,28.0,30.35,ESE,122,5.0,10.0,79,0.00,,,0.00,weatherlink.com 1.10,2013-04-21 08:03:00,
2013-04-21 03:18:00,33.4,28.0,30.35,SE,134,4.0,9.0,79,0.00,,,0.00,weatherlink.com 1.10,2013-04-21 08:18:00,
2013-04-21 03:33:00,33.6,27.0,30.36,SE,133,6.0,11.0,78,0.00,,,0.00,weatherlink.com 1.10,2013-04-21 08:33:00,
2013-04-21 03:49:00,33.6,27.0,30.35,East,99,8.0,11.0,78,0.00,,,0.00,weatherlink.com 1.10,2013-04-21 08:49:00,
2013-04-21 04:04:00,33.5,27.0,30.35,ESE,103,3.0,11.0,78,0.00,,,0.00,weatherlink.com 1.10,2013-04-21 09:04:00,
2013-04-21 04:19:00,33.5,27.0,30.35,SE,126,4.0,11.0,78,0.00,,,0.00,weatherlink.com 1.10,2013-04-21 09:19:00,
2013-04-21 04:34:00,33.7,28.0,30.36,ESE,119,5.0,12.0,78,0.00,,,0.00,weatherlink.com 1.10,2013-04-21 09:34:00,
2013-04-21 04:49:00,33.8,28.0,30.36,ESE,106,7.0,10.0,78,0.00,,,0.00,weatherlink.com 1.10,2013-04-21 09:49:00,
2013-04-21 05:04:00,33.8,27.0,30.36,SE,136,4.0,10.0,77,0.00,,,0.00,weatherlink.com 1.10,2013-04-21 10:04:00,
2013-04-21 05:19:00,33.9,27.0,30.36,ESE,115,2.0,10.0,76,0.00,,,0.00,weatherlink.com 1.10,2013-04-21 10:19:00,
2013-04-21 05:34:00,33.9,27.0,30.36,ESE,115,1.0,11.0,76,0.00,,,0.00,weatherlink.com 1.10,2013-04-21 10:34:00,
2013-04-21 05:49:00,33.8,27.0,30.36,East,99,6.0,10.0,77,0.00,,,0.00,weatherlink.com 1.10,2013-04-21 10:49:00,
2013-04-21 06:04:00,33.8,27.0,30.36,ESE,107,4.0,9.0,76,0.00,,,0.00,weatherlink.com 1.10,2013-04-21 11:04:00,
2013-04-21 06:19:00,33.9,27.0,30.37,East,97,7.0,8.0,76,0.00,,,0.00,weatherlink.com 1.10,2013-04-21 11:19:00,
2013-04-21 06:34:00,34.1,27.0,30.39,ESE,112,7.0,10.0,76,0.00,,,0.00,weatherlink.com 1.10,2013-04-21 11:34:00,
2013-04-21 06:49:00,34.3,27.0,30.41,SE,128,5.0,8.0,74,0.00,,,0.00,weatherlink.com 1.10,2013-04-21 11:49:00,
2013-04-21 07:04:00,34.5,27.0,30.42,SE,140,7.0,9.0,75,0.00,,,0.00,weatherlink.com 1.10,2013-04-21 12:04:00,
2013-04-21 07:19:00,34.4,27.0,30.43,SE,131,7.0,9.0,75,0.00,,,0.00,weatherlink.com 1.10,2013-04-21 12:19:00,
2013-04-21 07:34:00,34.7,28.0,30.42,ESE,115,3.0,8.0,76,0.00,,,0.00,weatherlink.com 1.10,2013-04-21 12:34:00,
2013-04-21 07:49:00,34.9,28.0,30.42,ESE,119,4.0,12.0,77,0.00,,,0.00,weatherlink.com 1.10,2013-04-21 12:49:00,
2013-04-21 08:04:00,35.2,28.0,30.43,SE,126,9.0,11.0,76,0.00,,,0.00,weatherlink.com 1.10,2013-04-21 13:04:00,
2013-04-21 08:19:00,35.5,28.0,30.43,SE,128,10.0,13.0,75,0.00,,,0.00,weatherlink.com 1.10,2013-04-21 13:19:00,
2013-04-21 08:34:00,35.8,28.0,30.42,SE,129,9.0,14.0,74,0.00,,,0.00,weatherlink.com 1.10,2013-04-21 13:34:00,
2013-04-21 08:49:00,36.6,28.0,30.42,SE,128,10.0,12.0,72,0.00,,,0.00,weatherlink.com 1.10,2013-04-21 13:49:00,
2013-04-21 09:04:00,36.6,29.0,30.42,SE,124,5.0,14.0,75,0.00,,,0.00,weatherlink.com 1.10,2013-04-21 14:04:00,
2013-04-21 09:19:00,37.4,29.0,30.41,SE,124,11.0,14.0,73,0.00,,,0.00,weatherlink.com 1.10,2013-04-21 14:19:00,
2013-04-21 09:34:00,38.2,30.0,30.40,SE,139,11.0,13.0,72,0.00,,,0.00,weatherlink.com 1.10,2013-04-21 14:34:00,
2013-04-21 09:49:00,38.9,30.0,30.41,ESE,110,4.0,17.0,70,0.00,,,0.00,weatherlink.com 1.10,2013-04-21 14:49:00,
2013-04-21 10:04:00,40.6,32.0,30.41,SE,128,13.0,18.0,71,0.00,,,0.00,weatherlink.com 1.10,2013-04-21 15:04:00,
2013-04-21 10:19:00,40.4,31.0,30.40,SE,128,14.0,19.0,68,0.00,,,0.00,weatherlink.com 1.10,2013-04-21 15:19:00,
2013-04-21 10:34:00,41.3,30.0,30.39,SE,127,15.0,24.0,65,0.00,,,0.00,weatherlink.com 1.10,2013-04-21 15:34:00,
2013-04-21 10:49:00,41.7,30.0,30.39,SE,125,15.0,22.0,64,0.00,,,0.00,weatherlink.com 1.10,2013-04-21 15:49:00,
2013-04-21 11:04:00,42.5,31.0,30.39,ESE,113,10.0,22.0,63,0.00,,,0.00,weatherlink.com 1.10,2013-04-21 16:04:00,
2013-04-21 11:19:00,43.4,31.0,30.38,SE,132,17.0,21.0,63,0.00,,,0.00,weatherlink.com 1.10,2013-04-21 16:19:00,
2013-04-21 11:34:00,43.7,31.0,30.37,SE,136,16.0,20.0,62,0.00,,,0.00,weatherlink.com 1.10,2013-04-21 16:34:00,
2013-04-21 11:49:00,44.3,32.0,30.37,ESE,121,10.0,18.0,63,0.00,,,0.00,weatherlink.com 1.10,2013-04-21 16:49:00,
2013-04-21 12:04:00,44.4,32.0,30.36,SE,130,13.0,21.0,61,0.00,,,0.00,weatherlink.com 1.10,2013-04-21 17:04:00,
2013-04-21 12:19:00,46.0,34.0,30.35,ESE,119,10.0,21.0,64,0.00,,,0.00,weatherlink.com 1.10,2013-04-21 17:19:00,
2013-04-21 12:34:00,46.2,32.0,30.34,SSE,153,12.0,23.0,58,0.00,,,0.00,weatherlink.com 1.10,2013-04-21 17:34:00,
2013-04-21 12:49:00,46.5,32.0,30.34,SE,131,15.0,21.0,57,0.00,,,0.00,weatherlink.com 1.10,2013-04-21 17:49:00,
2013-04-21 13:05:00,46.8,33.0,30.33,SE,130,12.0,24.0,59,0.00,,,0.00,weatherlink.com 1.10,2013-04-21 18:05:00,
2013-04-21 13:20:00,47.5,34.0,30.32,SE,124,14.0,23.0,60,0.00,,,0.00,weatherlink.com 1.10,2013-04-21 18:20:00,
2013-04-21 13:35:00,47.5,34.0,30.32,SE,135,19.0,23.0,59,0.00,,,0.00,weatherlink.com 1.10,2013-04-21 18:35:00,
2013-04-21 13:50:00,48.2,36.0,30.31,SE,135,17.0,22.0,64,0.00,,,0.00,weatherlink.com 1.10,2013-04-21 18:50:00,
2013-04-21 14:05:00,49.0,36.0,30.31,ESE,117,14.0,23.0,61,0.00,,,0.00,weatherlink.com 1.10,2013-04-21 19:05:00,
2013-04-21 14:20:00,49.3,36.0,30.30,SSE,150,15.0,19.0,61,0.00,,,0.00,weatherlink.com 1.10,2013-04-21 19:20:00,
2013-04-21 14:35:00,49.6,36.0,30.29,SSE,155,15.0,21.0,61,0.00,,,0.00,weatherlink.com 1.10,2013-04-21 19:35:00,
2013-04-21 14:50:00,49.9,35.0,30.28,SSE,158,13.0,19.0,58,0.00,,,0.00,weatherlink.com 1.10,2013-04-21 19:50:00,
2013-04-21 15:05:00,50.6,37.0,30.27,South,169,11.0,19.0,61,0.00,,,0.00,weatherlink.com 1.10,2013-04-21 20:05:00,
2013-04-21 15:20:00,51.2,38.0,30.27,West,259,13.0,19.0,60,0.00,,,0.00,weatherlink.com 1.10,2013-04-21 20:20:00,
2013-04-21 15:35:00,50.9,38.0,30.26,SE,133,18.0,22.0,61,0.00,,,0.00,weatherlink.com 1.10,2013-04-21 20:35:00,
2013-04-21 15:50:00,51.5,37.0,30.25,SE,144,18.0,20.0,59,0.00,,,0.00,weatherlink.com 1.10,2013-04-21 20:50:00,
2013-04-21 16:05:00,51.5,37.0,30.25,SE,144,14.0,20.0,59,0.00,,,0.00,weatherlink.com 1.10,2013-04-21 21:05:00,
2013-04-21 16:20:00,51.8,38.0,30.25,SE,136,13.0,20.0,60,0.00,,,0.00,weatherlink.com 1.10,2013-04-21 21:20:00,
2013-04-21 16:35:00,52.1,39.0,30.24,SE,135,14.0,17.0,62,0.00,,,0.00,weatherlink.com 1.10,2013-04-21 21:35:00,
2013-04-21 16:50:00,52.6,40.0,30.23,SE,144,8.0,18.0,63,0.00,,,0.00,weatherlink.com 1.10,2013-04-21 21:50:00,
2013-04-21 17:05:00,52.7,40.0,30.23,SE,138,17.0,19.0,63,0.00,,,0.00,weatherlink.com 1.10,2013-04-21 22:05:00,
2013-04-21 17:20:00,52.3,39.0,30.22,SE,136,15.0,22.0,62,0.00,,,0.00,weatherlink.com 1.10,2013-04-21 22:20:00,
2013-04-21 17:35:00,52.4,40.0,30.22,SE,142,16.0,21.0,63,0.00,,,0.00,weatherlink.com 1.10,2013-04-21 22:35:00,
2013-04-21 17:50:00,52.2,40.0,30.22,SSE,150,13.0,20.0,63,0.00,,,0.00,weatherlink.com 1.10,2013-04-21 22:50:00,
2013-04-21 18:05:00,52.3,40.0,30.21,SSE,167,15.0,19.0,64,0.00,,,0.00,weatherlink.com 1.10,2013-04-21 23:05:00,
2013-04-21 18:20:00,52.2,41.0,30.21,SE,136,15.0,20.0,65,0.00,,,0.00,weatherlink.com 1.10,2013-04-21 23:20:00,
2013-04-21 18:35:00,51.5,40.0,30.21,SE,144,17.0,19.0,64,0.00,,,0.00,weatherlink.com 1.10,2013-04-21 23:35:00,
2013-04-21 18:50:00,51.2,40.0,30.20,SE,139,12.0,19.0,65,0.00,,,0.00,weatherlink.com 1.10,2013-04-21 23:50:00,
2013-04-21 19:05:00,50.8,40.0,30.20,SE,135,13.0,18.0,66,0.00,,,0.00,weatherlink.com 1.10,2013-04-22 00:05:00,
2013-04-21 19:20:00,50.4,40.0,30.21,SE,140,11.0,13.0,68,0.00,,,0.00,weatherlink.com 1.10,2013-04-22 00:20:00,
2013-04-21 19:35:00,49.6,40.0,30.21,SE,146,9.0,12.0,70,0.00,,,0.00,weatherlink.com 1.10,2013-04-22 00:35:00,
2013-04-21 19:50:00,49.2,40.0,30.21,ESE,112,13.0,14.0,71,0.00,,,0.00,weatherlink.com 1.10,2013-04-22 00:50:00,
2013-04-21 20:05:00,48.3,40.0,30.21,SE,136,10.0,13.0,73,0.00,,,0.00,weatherlink.com 1.10,2013-04-22 01:05:00,
2013-04-21 20:20:00,48.0,40.0,30.21,SE,134,14.0,14.0,73,0.00,,,0.00,weatherlink.com 1.10,2013-04-22 01:20:00,
2013-04-21 20:35:00,47.9,39.0,30.21,SE,134,13.0,15.0,71,0.00,,,0.00,weatherlink.com 1.10,2013-04-22 01:35:00,
2013-04-21 20:50:00,47.5,39.0,30.22,SE,144,11.0,14.0,72,0.00,,,0.00,weatherlink.com 1.10,2013-04-22 01:50:00,
2013-04-21 21:05:00,46.8,39.0,30.22,SE,138,8.0,13.0,73,0.00,,,0.00,weatherlink.com 1.10,2013-04-22 02:05:00,
2013-04-21 21:20:00,46.3,38.0,30.23,SE,140,6.0,10.0,74,0.00,,,0.00,weatherlink.com 1.10,2013-04-22 02:20:00,
2013-04-21 21:35:00,45.9,39.0,30.23,SSE,148,8.0,9.0,76,0.00,,,0.00,weatherlink.com 1.10,2013-04-22 02:35:00,
2013-04-21 21:50:00,45.1,39.0,30.23,SE,132,8.0,10.0,78,0.00,,,0.00,weatherlink.com 1.10,2013-04-22 02:50:00,
2013-04-21 22:05:00,45.4,38.0,30.22,SE,132,10.0,12.0,76,0.00,,,0.00,weatherlink.com 1.10,2013-04-22 03:05:00,
2013-04-21 22:20:00,45.5,38.0,30.22,SE,142,8.0,11.0,76,0.00,,,0.00,weatherlink.com 1.10,2013-04-22 03:20:00,
2013-04-21 22:35:00,45.4,38.0,30.22,SE,141,9.0,13.0,76,0.00,,,0.00,weatherlink.com 1.10,2013-04-22 03:35:00,
2013-04-21 22:50:00,45.5,38.0,30.23,South,185,7.0,12.0,76,0.00,,,0.00,weatherlink.com 1.10,2013-04-22 03:50:00,
2013-04-21 23:05:00,45.4,38.0,30.23,SE,136,7.0,12.0,75,0.00,,,0.00,weatherlink.com 1.10,2013-04-22 04:05:00,
2013-04-21 23:20:00,45.2,38.0,30.23,SSE,147,10.0,12.0,75,0.00,,,0.00,weatherlink.com 1.10,2013-04-22 04:20:00,
2013-04-21 23:35:00,45.1,38.0,30.22,SE,142,11.0,14.0,75,0.00,,,0.00,weatherlink.com 1.10,2013-04-22 04:35:00,
2013-04-21 23:50:00,45.2,37.0,30.22,SE,137,13.0,16.0,73,0.00,,,0.00,weatherlink.com 1.10,2013-04-22 04:50:00,